UKUBE-1 (40074 NORAD) Tracking and Keplerian Element Data

This shows tracking and keplerian element data for the satellite.

Feedback or suggestion? Click here.




ElementValue
Catalog40074
NameUKUBE-1
Epoch Orbit62147
Epoch Day353.94368539
Epoch Year2025
RAAN333.977
Inclination98.4148
Eccentricity0.0003373
Argument of Perigee66.0912
Mean Anonmoly294.0667
Mean Motion15.09867519
Decay Rate6.523E-05
L11 40074U 14037F 25353.94368539 .00006523 00000+0 40743-3 0 9991
L22 40074 98.4148 333.9770 0003373 66.0912 294.0667 15.09867519621478



Live tracking and technical data element details for UKUBE-1 (NORAD 40074). UKUBE-1 can be tracked NOW for your location showing map with azimuth and elevation plus other details from your city location.







IsCatalogInMostPopularTable: catalog: 40074, numindb: 384
Update: records affected: 1



GetName: 40074 UKUBE-1

Hit Count: updated at: Thu, 21 May 2026 10:39:08 GMT